DAL2310 KLGA-KRSW

Flight info

Callsign DAL2310
Flight time 2h 46m
Altitude 36000
Route BIGGY Q75 SLOJO Q103 CYNTA SHFTY6
Aircraft B738/M-SDE2E3FGHIRWXY/LB1

Departure

Time 2026-05-06 15:22
Airport LaGuardia Airport (KLGA)

Arrival

Time 2026-05-06 18:09
Airport Southwest Florida International Airport (KRSW)
Time Latitude Longitude Altitude Speed Heading
2026-05-06 14:58 40.76983 -73.85996 20 ft 0 kts 278°
2026-05-06 15:11 40.76983 -73.85992 19 ft 2 kts 278°
2026-05-06 15:12 40.76980 -73.85964 19 ft 3 kts 279°
2026-05-06 15:12 40.76971 -73.85939 19 ft 4 kts 342°
2026-05-06 15:12 40.76954 -73.85937 20 ft 0 kts 12°
2026-05-06 15:12 40.76978 -73.85928 21 ft 4 kts
2026-05-06 15:13 40.76993 -73.85932 20 ft 0 kts 345°
2026-05-06 15:15 40.77002 -73.85935 18 ft 6 kts 345°
2026-05-06 15:15 40.77079 -73.85962 17 ft 17 kts 345°
2026-05-06 15:16 40.77185 -73.86060 11 ft 20 kts 302°
2026-05-06 15:16 40.77264 -73.86225 11 ft 23 kts 302°
2026-05-06 15:16 40.77347 -73.86398 12 ft 22 kts 302°
2026-05-06 15:16 40.77412 -73.86536 12 ft 11 kts 301°
2026-05-06 15:17 40.77478 -73.86573 11 ft 11 kts 359°
2026-05-06 15:17 40.77537 -73.86638 11 ft 13 kts 304°
2026-05-06 15:17 40.77609 -73.86790 11 ft 25 kts 301°
2026-05-06 15:17 40.77721 -73.87026 12 ft 35 kts 302°
2026-05-06 15:18 40.77837 -73.87267 12 ft 16 kts 302°
2026-05-06 15:18 40.77875 -73.87346 13 ft 15 kts 302°
2026-05-06 15:18 40.77930 -73.87461 14 ft 15 kts 302°
2026-05-06 15:18 40.77982 -73.87572 16 ft 14 kts 302°
2026-05-06 15:19 40.78033 -73.87677 14 ft 13 kts 302°
2026-05-06 15:19 40.78081 -73.87778 16 ft 13 kts 301°
2026-05-06 15:19 40.78139 -73.87858 21 ft 8 kts 347°
2026-05-06 15:19 40.78140 -73.87859 21 ft 0 kts 347°
2026-05-06 15:20 40.78144 -73.87860 23 ft 3 kts 347°
2026-05-06 15:20 40.78198 -73.87857 18 ft 11 kts 32°
2026-05-06 15:20 40.78203 -73.87799 17 ft 0 kts 116°
2026-05-06 15:21 40.78203 -73.87798 17 ft 1 kts 116°
2026-05-06 15:21 40.78202 -73.87797 17 ft 0 kts 119°
2026-05-06 15:22 40.78170 -73.87728 16 ft 37 kts 124°
2026-05-06 15:22 40.77901 -73.87165 14 ft 108 kts 122°
2026-05-06 15:22 40.77404 -73.86120 179 ft 147 kts 126°
2026-05-06 15:22 40.76851 -73.84950 800 ft 158 kts 131°
2026-05-06 15:23 40.76030 -73.83972 1283 ft 158 kts 171°
2026-05-06 15:23 40.74946 -73.83780 2052 ft 162 kts 177°
2026-05-06 15:23 40.73727 -73.83422 2866 ft 192 kts 175°
2026-05-06 15:23 40.72392 -73.82892 3870 ft 202 kts 180°
2026-05-06 15:24 40.71050 -73.83034 4962 ft 191 kts 210°
2026-05-06 15:24 40.70052 -73.84179 5841 ft 201 kts 236°
2026-05-06 15:24 40.69231 -73.85732 6621 ft 207 kts 229°
2026-05-06 15:24 40.68307 -73.87192 7487 ft 207 kts 233°
2026-05-06 15:25 40.67777 -73.88974 8311 ft 219 kts 256°
2026-05-06 15:25 40.67816 -73.91059 8891 ft 242 kts 271°
2026-05-06 15:25 40.68471 -73.93292 9227 ft 280 kts 292°
2026-05-06 15:25 40.69553 -73.95485 9984 ft 287 kts 294°
2026-05-06 15:26 40.70636 -73.97703 10731 ft 289 kts 290°
2026-05-06 15:26 40.71218 -74.00206 11051 ft 291 kts 264°
2026-05-06 15:26 40.70769 -74.02805 11276 ft 300 kts 243°
2026-05-06 15:26 40.69916 -74.05433 11450 ft 322 kts 243°
2026-05-06 15:27 40.69030 -74.08205 11881 ft 333 kts 244°
2026-05-06 15:27 40.68139 -74.11045 12577 ft 337 kts 244°
2026-05-06 15:27 40.67259 -74.13900 13336 ft 338 kts 245°
2026-05-06 15:27 40.66379 -74.16789 13965 ft 342 kts 245°
2026-05-06 15:28 40.65493 -74.19719 14558 ft 345 kts 246°
2026-05-06 15:28 40.64605 -74.22666 15216 ft 347 kts 246°
2026-05-06 15:28 40.63715 -74.25631 15852 ft 350 kts 247°
2026-05-06 15:28 40.62817 -74.28623 16442 ft 353 kts 247°
2026-05-06 15:29 40.61910 -74.31641 17027 ft 356 kts 248°
2026-05-06 15:29 40.60996 -74.34684 17581 ft 359 kts 248°
2026-05-06 15:29 40.60075 -74.37747 18131 ft 362 kts 248°
2026-05-06 15:29 40.59143 -74.40843 18592 ft 365 kts 248°
2026-05-06 15:30 40.58203 -74.43960 19066 ft 368 kts 248°
2026-05-06 15:30 40.57256 -74.47098 19503 ft 371 kts 249°
2026-05-06 15:30 40.56301 -74.50257 19956 ft 373 kts 249°
2026-05-06 15:30 40.55338 -74.53440 20395 ft 376 kts 249°
2026-05-06 15:31 40.54367 -74.56645 20871 ft 379 kts 249°
2026-05-06 15:31 40.53399 -74.59838 21318 ft 382 kts 249°
2026-05-06 15:31 40.52408 -74.63101 21753 ft 385 kts 249°
2026-05-06 15:32 40.50405 -74.69686 22565 ft 391 kts 249°
2026-05-06 15:32 40.49391 -74.73011 22948 ft 393 kts 249°
2026-05-06 15:32 40.48369 -74.76362 23319 ft 396 kts 249°
2026-05-06 15:32 40.47341 -74.79727 23684 ft 399 kts 249°
2026-05-06 15:33 40.46303 -74.83122 24047 ft 400 kts 249°
2026-05-06 15:33 40.45265 -74.86513 24420 ft 401 kts 249°
2026-05-06 15:33 40.44220 -74.89920 24764 ft 403 kts 249°
2026-05-06 15:33 40.43166 -74.93336 25086 ft 405 kts 248°
2026-05-06 15:34 40.41863 -74.96626 25404 ft 408 kts 241°
2026-05-06 15:34 40.40245 -74.99708 25731 ft 412 kts 234°
2026-05-06 15:34 40.38311 -75.02519 26030 ft 416 kts 230°
2026-05-06 15:34 40.36317 -75.05274 26307 ft 418 kts 231°
2026-05-06 15:35 40.34310 -75.08054 26625 ft 420 kts 231°
2026-05-06 15:35 40.32307 -75.10838 26983 ft 420 kts 231°
2026-05-06 15:35 40.30301 -75.13636 27259 ft 422 kts 231°
2026-05-06 15:35 40.28292 -75.16444 27465 ft 423 kts 232°
2026-05-06 15:36 40.26276 -75.19263 27671 ft 424 kts 232°
2026-05-06 15:36 40.24261 -75.22079 27972 ft 424 kts 232°
2026-05-06 15:36 40.22248 -75.24890 28293 ft 422 kts 232°
2026-05-06 15:36 40.20244 -75.27687 28601 ft 421 kts 232°
2026-05-06 15:37 40.18238 -75.30482 28877 ft 421 kts 232°
2026-05-06 15:37 40.16238 -75.33269 29193 ft 420 kts 232°
2026-05-06 15:37 40.14242 -75.36047 29507 ft 419 kts 232°
2026-05-06 15:37 40.12245 -75.38821 29823 ft 418 kts 232°
2026-05-06 15:38 40.10251 -75.41587 30124 ft 417 kts 233°
2026-05-06 15:38 40.08271 -75.44329 30567 ft 411 kts 233°
2026-05-06 15:38 40.06324 -75.47021 31092 ft 405 kts 234°
2026-05-06 15:38 40.04400 -75.49682 31446 ft 402 kts 234°
2026-05-06 15:39 40.02479 -75.52343 31700 ft 402 kts 234°
2026-05-06 15:39 40.00561 -75.54999 31923 ft 403 kts 234°
2026-05-06 15:39 39.98661 -75.57627 32043 ft 404 kts 234°
2026-05-06 15:39 39.96727 -75.60300 32233 ft 406 kts 234°
2026-05-06 15:40 39.94791 -75.62968 32529 ft 404 kts 235°
2026-05-06 15:40 39.92862 -75.65623 32854 ft 402 kts 235°
2026-05-06 15:40 39.90993 -75.68307 33164 ft 397 kts 238°
2026-05-06 15:40 39.89253 -75.71086 33442 ft 395 kts 239°
2026-05-06 15:41 39.87540 -75.73875 33669 ft 394 kts 239°
2026-05-06 15:41 39.85820 -75.76656 33929 ft 394 kts 239°
2026-05-06 15:41 39.84097 -75.79416 34263 ft 391 kts 239°
2026-05-06 15:41 39.82396 -75.82122 34801 ft 382 kts 240°
2026-05-06 15:42 39.80723 -75.84781 35170 ft 379 kts 240°
2026-05-06 15:42 39.79056 -75.87439 35390 ft 379 kts 240°
2026-05-06 15:42 39.77390 -75.90097 35585 ft 380 kts 240°
2026-05-06 15:42 39.75723 -75.92751 35845 ft 378 kts 240°
2026-05-06 15:43 39.74062 -75.95392 36146 ft 376 kts 240°
2026-05-06 15:43 39.72411 -75.98014 36427 ft 374 kts 241°
2026-05-06 15:43 39.70765 -76.00627 36676 ft 373 kts 241°
2026-05-06 15:43 39.69123 -76.03233 36895 ft 373 kts 241°
2026-05-06 15:44 39.67482 -76.05835 37132 ft 372 kts 241°
2026-05-06 15:44 39.65845 -76.08429 37340 ft 371 kts 241°
2026-05-06 15:44 39.64233 -76.10981 37574 ft 370 kts 242°
2026-05-06 15:44 39.62580 -76.13596 37750 ft 370 kts 242°
2026-05-06 15:45 39.60972 -76.16135 37897 ft 368 kts 241°
2026-05-06 15:45 39.59344 -76.18692 37900 ft 368 kts 241°
2026-05-06 15:45 39.56054 -76.23755 37915 ft 367 kts 241°
2026-05-06 15:46 39.52763 -76.28804 37930 ft 367 kts 241°
2026-05-06 15:46 39.49601 -76.33658 37915 ft 367 kts 241°
2026-05-06 15:47 39.46295 -76.38702 37911 ft 369 kts 239°
2026-05-06 15:47 39.42685 -76.43506 37901 ft 373 kts 237°
2026-05-06 15:48 39.39015 -76.48265 37912 ft 374 kts 237°
2026-05-06 15:48 39.35343 -76.53040 37945 ft 375 kts 237°
2026-05-06 15:49 39.31672 -76.57820 37925 ft 374 kts 237°
2026-05-06 15:49 39.28053 -76.62534 37902 ft 374 kts 237°
2026-05-06 15:50 39.24398 -76.67286 37895 ft 372 kts 237°
2026-05-06 15:50 39.20754 -76.72020 37906 ft 371 kts 237°
2026-05-06 15:51 39.17120 -76.76734 37909 ft 371 kts 237°
2026-05-06 15:51 39.13480 -76.81450 37927 ft 371 kts 237°
2026-05-06 15:52 39.09862 -76.86128 37928 ft 371 kts 237°
2026-05-06 15:52 39.06197 -76.90859 37881 ft 370 kts 237°
2026-05-06 15:53 39.02565 -76.95543 37904 ft 369 kts 237°
2026-05-06 15:53 38.98958 -77.00184 37922 ft 369 kts 237°
2026-05-06 15:54 38.95367 -77.04804 37931 ft 369 kts 237°
2026-05-06 15:54 38.91739 -77.09469 37895 ft 370 kts 237°
2026-05-06 15:55 38.88099 -77.14142 37896 ft 369 kts 237°
2026-05-06 15:55 38.84461 -77.18805 37897 ft 369 kts 237°
2026-05-06 15:56 38.80822 -77.23464 37912 ft 370 kts 237°
2026-05-06 15:56 38.77181 -77.28119 37907 ft 369 kts 237°
2026-05-06 15:57 38.73540 -77.32762 37890 ft 369 kts 237°
2026-05-06 15:57 38.69783 -77.37294 37909 ft 373 kts 234°
2026-05-06 15:58 38.65912 -77.41707 37893 ft 373 kts 234°
2026-05-06 15:58 38.62047 -77.46119 37923 ft 372 kts 234°
2026-05-06 15:59 38.58196 -77.50541 37917 ft 372 kts 234°
2026-05-06 15:59 38.54345 -77.54971 37918 ft 373 kts 234°
2026-05-06 16:00 38.50491 -77.59400 37918 ft 373 kts 234°
2026-05-06 16:00 38.46635 -77.63824 37901 ft 373 kts 234°
2026-05-06 16:01 38.42809 -77.68207 37906 ft 372 kts 234°
2026-05-06 16:01 38.38956 -77.72617 37911 ft 372 kts 234°
2026-05-06 16:02 38.35099 -77.77025 37914 ft 372 kts 234°
2026-05-06 16:02 38.31240 -77.81427 37919 ft 372 kts 234°
2026-05-06 16:03 38.27379 -77.85826 37918 ft 373 kts 234°
2026-05-06 16:03 38.23521 -77.90212 37920 ft 372 kts 234°
2026-05-06 16:04 38.19660 -77.94599 37924 ft 372 kts 234°
2026-05-06 16:04 38.15797 -77.98979 37930 ft 372 kts 234°
2026-05-06 16:05 38.11967 -78.03318 37923 ft 371 kts 234°
2026-05-06 16:05 38.08119 -78.07670 37922 ft 370 kts 234°
2026-05-06 16:06 38.04277 -78.12010 37892 ft 370 kts 233°
2026-05-06 16:06 38.00370 -78.16300 37920 ft 376 kts 230°
2026-05-06 16:07 37.96181 -78.20326 37924 ft 379 kts 229°
2026-05-06 16:07 37.92658 -78.23657 37930 ft 380 kts 229°
2026-05-06 16:08 37.88417 -78.27677 37920 ft 381 kts 229°
2026-05-06 16:08 37.84172 -78.31711 37931 ft 382 kts 229°
2026-05-06 16:09 37.79921 -78.35752 37922 ft 382 kts 229°
2026-05-06 16:09 37.75668 -78.39792 37913 ft 382 kts 229°
2026-05-06 16:10 37.71419 -78.43823 37919 ft 382 kts 229°
2026-05-06 16:10 37.67172 -78.47846 37933 ft 382 kts 229°
2026-05-06 16:11 37.62923 -78.51865 37896 ft 382 kts 229°
2026-05-06 16:11 37.58670 -78.55883 37931 ft 382 kts 229°
2026-05-06 16:12 37.54414 -78.59898 37942 ft 383 kts 229°
2026-05-06 16:12 37.50134 -78.63929 37941 ft 385 kts 229°
2026-05-06 16:13 37.45838 -78.67970 37956 ft 386 kts 228°
2026-05-06 16:13 37.41521 -78.72026 37944 ft 388 kts 228°
2026-05-06 16:14 37.37190 -78.76086 37936 ft 389 kts 227°
2026-05-06 16:14 37.32837 -78.80158 37954 ft 391 kts 227°
2026-05-06 16:15 37.28488 -78.84225 37955 ft 393 kts 227°
2026-05-06 16:15 37.24084 -78.88337 37956 ft 396 kts 227°
2026-05-06 16:16 37.19657 -78.92463 37950 ft 397 kts 227°
2026-05-06 16:16 37.15209 -78.96604 37945 ft 399 kts 227°
2026-05-06 16:17 37.10735 -79.00761 37951 ft 401 kts 227°
2026-05-06 16:17 37.06244 -79.04926 37946 ft 403 kts 227°
2026-05-06 16:18 37.01732 -79.09101 37955 ft 403 kts 227°
2026-05-06 16:18 36.97228 -79.13267 37931 ft 402 kts 227°
2026-05-06 16:19 36.92740 -79.17411 37945 ft 400 kts 227°
2026-05-06 16:19 36.88271 -79.21532 37963 ft 398 kts 227°
2026-05-06 16:20 36.83818 -79.25634 37965 ft 397 kts 227°
2026-05-06 16:20 36.79386 -79.29710 37983 ft 395 kts 227°
2026-05-06 16:21 36.74990 -79.33747 37970 ft 394 kts 227°
2026-05-06 16:21 36.70582 -79.37789 37994 ft 393 kts 227°
2026-05-06 16:22 36.66175 -79.41827 38008 ft 394 kts 227°
2026-05-06 16:22 36.61751 -79.45874 38015 ft 395 kts 227°
2026-05-06 16:23 36.57312 -79.49928 37998 ft 396 kts 227°
2026-05-06 16:23 36.52936 -79.53917 37931 ft 397 kts 227°
2026-05-06 16:24 36.48534 -79.57924 37959 ft 397 kts 227°
2026-05-06 16:24 36.44122 -79.61935 37972 ft 398 kts 227°
2026-05-06 16:25 36.39699 -79.65951 37965 ft 399 kts 227°
2026-05-06 16:25 36.35295 -79.69943 38006 ft 400 kts 227°
2026-05-06 16:26 36.30852 -79.73965 38007 ft 401 kts 227°
2026-05-06 16:26 36.26398 -79.77991 37995 ft 401 kts 227°
2026-05-06 16:27 36.21938 -79.82014 38005 ft 401 kts 227°
2026-05-06 16:27 36.17472 -79.86039 38013 ft 402 kts 227°
2026-05-06 16:28 36.13010 -79.90054 38024 ft 402 kts 227°
2026-05-06 16:28 36.08490 -79.94117 38017 ft 402 kts 227°
2026-05-06 16:29 36.03817 -79.97991 38015 ft 413 kts 219°
2026-05-06 16:29 35.98404 -80.00778 38010 ft 424 kts 214°
2026-05-06 16:30 35.93842 -80.02987 38009 ft 424 kts 214°
2026-05-06 16:30 35.87447 -80.06107 37993 ft 425 kts 214°
2026-05-06 16:31 35.81951 -80.08807 37996 ft 425 kts 215°
2026-05-06 16:31 35.76538 -80.11471 38020 ft 425 kts 215°
2026-05-06 16:32 35.71115 -80.14138 38026 ft 425 kts 215°
2026-05-06 16:32 35.65686 -80.16803 38019 ft 426 kts 215°
2026-05-06 16:33 35.60187 -80.19496 38050 ft 425 kts 215°
2026-05-06 16:34 35.51964 -80.23518 38065 ft 423 kts 215°
2026-05-06 16:34 35.46488 -80.26192 38065 ft 423 kts 215°
2026-05-06 16:35 35.41031 -80.28852 38060 ft 422 kts 215°
2026-05-06 16:35 35.35581 -80.31506 38031 ft 421 kts 214°
2026-05-06 16:36 35.30130 -80.34158 38036 ft 421 kts 214°
2026-05-06 16:36 35.24681 -80.36804 38028 ft 422 kts 214°
2026-05-06 16:37 35.21991 -80.38110 38032 ft 423 kts 214°
2026-05-06 16:37 35.16541 -80.40751 38022 ft 425 kts 214°
2026-05-06 16:38 35.11033 -80.43415 38017 ft 427 kts 214°
2026-05-06 16:38 35.05456 -80.46109 38039 ft 429 kts 214°
2026-05-06 16:39 34.99891 -80.48793 38043 ft 431 kts 214°
2026-05-06 16:39 34.94305 -80.51483 38047 ft 432 kts 214°
2026-05-06 16:40 34.88735 -80.54160 38022 ft 433 kts 214°
2026-05-06 16:40 34.83127 -80.56850 38036 ft 433 kts 214°
2026-05-06 16:41 34.77513 -80.59542 38039 ft 433 kts 214°
2026-05-06 16:41 34.71900 -80.62230 38031 ft 433 kts 214°
2026-05-06 16:42 34.66290 -80.64913 38060 ft 433 kts 214°
2026-05-06 16:42 34.60546 -80.67335 38054 ft 440 kts 210°
2026-05-06 16:43 34.54659 -80.69481 38061 ft 442 kts 210°
2026-05-06 16:43 34.48767 -80.71624 38051 ft 442 kts 210°
2026-05-06 16:44 34.42876 -80.73797 38042 ft 442 kts 210°
2026-05-06 16:44 34.36985 -80.75983 38027 ft 443 kts 210°
2026-05-06 16:45 34.31100 -80.78164 38044 ft 443 kts 210°
2026-05-06 16:45 34.25430 -80.80261 38064 ft 443 kts 210°
2026-05-06 16:46 34.19681 -80.82385 38058 ft 444 kts 210°
2026-05-06 16:46 34.13931 -80.84504 38065 ft 444 kts 210°
2026-05-06 16:47 34.08288 -80.86581 38071 ft 445 kts 211°
2026-05-06 16:47 34.02513 -80.88703 38086 ft 446 kts 211°
2026-05-06 16:48 33.96670 -80.90849 38084 ft 447 kts 211°
2026-05-06 16:48 33.91023 -80.92917 38077 ft 447 kts 210°
2026-05-06 16:49 33.85163 -80.95062 38072 ft 446 kts 211°
2026-05-06 16:49 33.79300 -80.97205 38068 ft 446 kts 211°
2026-05-06 16:50 33.73439 -80.99345 38066 ft 446 kts 211°
2026-05-06 16:50 33.67585 -81.01479 38074 ft 445 kts 211°
2026-05-06 16:51 33.61730 -81.03610 38039 ft 445 kts 211°
2026-05-06 16:51 33.56051 -81.05673 38067 ft 444 kts 211°
2026-05-06 16:52 33.50297 -81.07763 38076 ft 444 kts 211°
2026-05-06 16:52 33.45838 -81.09380 38073 ft 444 kts 211°
2026-05-06 16:53 33.39963 -81.11508 38069 ft 444 kts 211°
2026-05-06 16:53 33.36128 -81.12893 38058 ft 444 kts 210°
2026-05-06 16:54 33.35950 -81.12958 38060 ft 444 kts 210°
2026-05-06 16:54 33.34777 -81.13381 38061 ft 444 kts 210°
2026-05-06 16:55 33.31259 -81.14650 38088 ft 443 kts 210°
2026-05-06 16:55 33.25430 -81.16754 38091 ft 443 kts 210°
2026-05-06 16:56 33.19603 -81.18853 38089 ft 443 kts 210°
2026-05-06 16:56 33.13775 -81.20950 38088 ft 443 kts 210°
2026-05-06 16:57 33.07950 -81.23043 38085 ft 443 kts 210°
2026-05-06 16:57 33.02037 -81.25165 38093 ft 443 kts 210°
2026-05-06 16:58 32.97123 -81.26926 38092 ft 444 kts 210°
2026-05-06 16:58 32.91210 -81.29041 38086 ft 444 kts 210°
2026-05-06 16:59 32.85300 -81.31153 38061 ft 443 kts 210°
2026-05-06 16:59 32.79477 -81.33231 38079 ft 443 kts 210°
2026-05-06 17:00 32.73574 -81.35336 38081 ft 443 kts 210°
2026-05-06 17:00 32.67671 -81.37438 38070 ft 443 kts 210°
2026-05-06 17:01 32.61767 -81.39536 38076 ft 443 kts 210°
2026-05-06 17:01 32.55864 -81.41629 38065 ft 442 kts 210°
2026-05-06 17:02 32.50292 -81.43602 38074 ft 443 kts 210°
2026-05-06 17:02 32.44584 -81.45623 38076 ft 443 kts 210°
2026-05-06 17:03 32.38677 -81.47711 38078 ft 443 kts 210°
2026-05-06 17:03 32.32972 -81.49725 38058 ft 444 kts 209°
2026-05-06 17:04 32.27052 -81.51811 38079 ft 444 kts 209°
2026-05-06 17:04 32.21128 -81.53897 38087 ft 444 kts 209°
2026-05-06 17:05 32.15200 -81.55982 38088 ft 445 kts 209°
2026-05-06 17:05 32.09304 -81.58052 38087 ft 445 kts 209°
2026-05-06 17:06 32.03369 -81.60132 38088 ft 445 kts 208°
2026-05-06 17:06 31.97534 -81.62175 38087 ft 445 kts 208°
2026-05-06 17:07 31.91597 -81.64251 38082 ft 445 kts 208°
2026-05-06 17:07 31.85652 -81.66328 38092 ft 446 kts 208°
2026-05-06 17:08 31.79705 -81.68401 38039 ft 446 kts 208°
2026-05-06 17:08 31.73763 -81.70470 38080 ft 445 kts 208°
2026-05-06 17:09 31.67814 -81.72540 38089 ft 446 kts 208°
2026-05-06 17:09 31.61867 -81.74606 38123 ft 446 kts 208°
2026-05-06 17:10 31.55908 -81.76674 38130 ft 447 kts 208°
2026-05-06 17:10 31.49942 -81.78741 38124 ft 447 kts 207°
2026-05-06 17:11 31.43967 -81.80809 38123 ft 448 kts 207°
2026-05-06 17:11 31.37980 -81.82877 38113 ft 449 kts 207°
2026-05-06 17:12 31.31985 -81.84945 38103 ft 450 kts 207°
2026-05-06 17:12 31.25970 -81.87017 38054 ft 450 kts 207°
2026-05-06 17:13 31.19959 -81.89084 38069 ft 450 kts 207°
2026-05-06 17:13 31.13944 -81.91151 38080 ft 451 kts 207°
2026-05-06 17:14 31.07920 -81.93220 38077 ft 451 kts 207°
2026-05-06 17:14 31.01893 -81.95286 38079 ft 452 kts 207°
2026-05-06 17:15 30.95891 -81.97340 38099 ft 452 kts 207°
2026-05-06 17:15 30.89856 -81.99403 38150 ft 452 kts 207°
2026-05-06 17:16 30.83815 -82.01466 38153 ft 452 kts 207°
2026-05-06 17:16 30.77772 -82.03527 38186 ft 453 kts 207°
2026-05-06 17:17 30.71730 -82.05585 38199 ft 453 kts 207°
2026-05-06 17:17 30.65686 -82.07640 38202 ft 452 kts 206°
2026-05-06 17:18 30.59609 -82.09584 38181 ft 461 kts 199°
2026-05-06 17:18 30.53137 -82.10262 38179 ft 470 kts 193°
2026-05-06 17:19 30.46613 -82.10694 38167 ft 469 kts 193°
2026-05-06 17:19 30.40103 -82.11236 38167 ft 468 kts 194°
2026-05-06 17:20 30.33611 -82.11843 38159 ft 468 kts 194°
2026-05-06 17:20 30.27117 -82.12455 38158 ft 468 kts 194°
2026-05-06 17:21 30.20617 -82.13059 38148 ft 468 kts 194°
2026-05-06 17:21 30.17332 -82.13162 38129 ft 481 kts 184°
2026-05-06 17:21 30.13992 -82.12622 38150 ft 487 kts 179°
2026-05-06 17:22 30.07315 -82.11135 38154 ft 489 kts 177°
2026-05-06 17:22 30.00641 -82.09639 38152 ft 488 kts 178°
2026-05-06 17:23 29.93956 -82.08249 38162 ft 488 kts 179°
2026-05-06 17:23 29.87269 -82.06909 38100 ft 488 kts 178°
2026-05-06 17:24 29.80587 -82.05575 38110 ft 487 kts 178°
2026-05-06 17:24 29.73908 -82.04237 38119 ft 487 kts 178°
2026-05-06 17:25 29.67221 -82.02898 38117 ft 487 kts 178°
2026-05-06 17:25 29.60541 -82.01561 38118 ft 487 kts 178°
2026-05-06 17:26 29.53898 -82.00234 38106 ft 487 kts 178°
2026-05-06 17:26 29.47379 -81.98933 38101 ft 487 kts 178°
2026-05-06 17:27 29.40703 -81.97602 38106 ft 487 kts 178°
2026-05-06 17:27 29.34026 -81.96276 38107 ft 487 kts 178°
2026-05-06 17:28 29.27339 -81.94953 38093 ft 487 kts 178°
2026-05-06 17:28 29.20766 -81.93654 38100 ft 487 kts 178°
2026-05-06 17:29 29.14083 -81.92334 38121 ft 487 kts 178°
2026-05-06 17:29 29.07484 -81.91032 38091 ft 488 kts 178°
2026-05-06 17:29 29.04112 -81.90370 37583 ft 494 kts 178°
2026-05-06 17:30 29.00731 -81.89705 37048 ft 492 kts 177°
2026-05-06 17:30 28.97364 -81.89040 36462 ft 490 kts 177°
2026-05-06 17:30 28.94005 -81.88377 35894 ft 490 kts 177°
2026-05-06 17:30 28.90934 -81.87774 35311 ft 491 kts 177°
2026-05-06 17:31 28.87643 -81.87128 34653 ft 493 kts 177°
2026-05-06 17:31 28.84298 -81.86472 33960 ft 495 kts 176°
2026-05-06 17:31 28.80896 -81.85805 33212 ft 497 kts 176°
2026-05-06 17:31 28.77602 -81.85157 32520 ft 498 kts 176°
2026-05-06 17:32 28.74293 -81.84500 32043 ft 493 kts 176°
2026-05-06 17:32 28.71038 -81.83851 31531 ft 490 kts 176°
2026-05-06 17:32 28.67696 -81.83186 31038 ft 486 kts 176°
2026-05-06 17:32 28.64459 -81.82544 30549 ft 482 kts 176°
2026-05-06 17:33 28.61299 -81.81917 30466 ft 468 kts 176°
2026-05-06 17:33 28.55433 -81.80755 30548 ft 466 kts 175°
2026-05-06 17:33 28.52387 -81.80040 30552 ft 477 kts 173°
2026-05-06 17:34 28.49246 -81.79164 30565 ft 485 kts 171°
2026-05-06 17:34 28.42909 -81.77262 30539 ft 487 kts 171°
2026-05-06 17:34 28.39834 -81.76338 30296 ft 477 kts 171°
2026-05-06 17:35 28.36635 -81.75396 29735 ft 474 kts 171°
2026-05-06 17:35 28.33666 -81.74538 28978 ft 467 kts 171°
2026-05-06 17:35 28.30605 -81.73665 28064 ft 464 kts 171°
2026-05-06 17:36 28.24626 -81.71970 26477 ft 455 kts 170°
2026-05-06 17:36 28.21646 -81.71124 25764 ft 449 kts 170°
2026-05-06 17:36 28.18709 -81.70290 25069 ft 444 kts 170°
2026-05-06 17:36 28.15834 -81.69474 24434 ft 438 kts 170°
2026-05-06 17:37 28.13077 -81.68689 24140 ft 424 kts 170°
2026-05-06 17:37 28.10292 -81.67900 23849 ft 428 kts 169°
2026-05-06 17:37 28.07434 -81.67106 23460 ft 437 kts 172°
2026-05-06 17:37 28.04483 -81.66873 23069 ft 426 kts 191°
2026-05-06 17:38 28.01699 -81.67524 22781 ft 415 kts 199°
2026-05-06 17:38 27.98921 -81.68356 22439 ft 411 kts 200°
2026-05-06 17:38 27.96247 -81.69173 22107 ft 408 kts 199°
2026-05-06 17:38 27.93511 -81.70000 21790 ft 406 kts 199°
2026-05-06 17:39 27.90852 -81.70789 21481 ft 404 kts 199°
2026-05-06 17:39 27.89548 -81.71171 21328 ft 403 kts 199°
2026-05-06 17:39 27.87391 -81.71798 21079 ft 403 kts 198°
2026-05-06 17:39 27.84750 -81.72560 20785 ft 402 kts 198°
2026-05-06 17:40 27.82105 -81.73320 20474 ft 402 kts 198°
2026-05-06 17:40 27.79394 -81.74099 20147 ft 402 kts 198°
2026-05-06 17:40 27.76772 -81.74851 19847 ft 401 kts 198°
2026-05-06 17:40 27.74066 -81.75627 19538 ft 401 kts 198°
2026-05-06 17:41 27.71362 -81.76398 19209 ft 400 kts 196°
2026-05-06 17:41 27.68601 -81.76713 18949 ft 398 kts 181°
2026-05-06 17:41 27.65956 -81.76567 18756 ft 392 kts 179°
2026-05-06 17:41 27.63247 -81.76434 18527 ft 387 kts 180°
2026-05-06 17:42 27.60547 -81.76337 18314 ft 391 kts 179°
2026-05-06 17:42 27.57859 -81.75759 18029 ft 398 kts 159°
2026-05-06 17:42 27.55326 -81.74508 17849 ft 397 kts 156°
2026-05-06 17:42 27.52831 -81.73246 17577 ft 389 kts 156°
2026-05-06 17:43 27.50372 -81.72019 17169 ft 383 kts 156°
2026-05-06 17:43 27.47935 -81.70820 16512 ft 381 kts 156°
2026-05-06 17:43 27.45507 -81.69639 15783 ft 379 kts 156°
2026-05-06 17:43 27.43103 -81.68477 15454 ft 368 kts 156°
2026-05-06 17:44 27.41569 -81.67737 15536 ft 360 kts 156°
2026-05-06 17:44 27.39226 -81.66607 15614 ft 375 kts 156°
2026-05-06 17:44 27.36861 -81.65468 15668 ft 383 kts 156°
2026-05-06 17:44 27.34624 -81.64390 15657 ft 385 kts 156°
2026-05-06 17:45 27.32242 -81.63244 15618 ft 383 kts 156°
2026-05-06 17:45 27.29790 -81.62065 15025 ft 381 kts 156°
2026-05-06 17:45 27.27375 -81.60904 14575 ft 375 kts 156°
2026-05-06 17:45 27.24997 -81.59761 14179 ft 371 kts 155°
2026-05-06 17:46 27.22624 -81.58619 13741 ft 370 kts 155°
2026-05-06 17:46 27.20344 -81.57523 13316 ft 368 kts 155°
2026-05-06 17:46 27.18079 -81.56435 12924 ft 365 kts 155°
2026-05-06 17:46 27.15809 -81.55345 12529 ft 362 kts 155°
2026-05-06 17:47 27.13533 -81.54253 12147 ft 359 kts 156°
2026-05-06 17:47 27.11331 -81.53197 11771 ft 356 kts 155°
2026-05-06 17:47 27.09122 -81.52136 11391 ft 351 kts 155°
2026-05-06 17:47 27.06917 -81.51077 11003 ft 339 kts 156°
2026-05-06 17:48 27.04779 -81.50051 10641 ft 329 kts 156°
2026-05-06 17:48 27.02784 -81.49094 10300 ft 320 kts 156°
2026-05-06 17:48 27.00765 -81.48125 10020 ft 309 kts 155°
2026-05-06 17:48 26.98857 -81.47182 9972 ft 291 kts 155°
2026-05-06 17:49 26.97115 -81.46307 9932 ft 276 kts 155°
2026-05-06 17:49 26.95393 -81.45441 9675 ft 268 kts 154°
2026-05-06 17:49 26.93751 -81.44615 9297 ft 266 kts 154°
2026-05-06 17:49 26.92066 -81.43769 8917 ft 264 kts 154°
2026-05-06 17:50 26.90453 -81.42961 8563 ft 263 kts 154°
2026-05-06 17:50 26.88794 -81.42129 8224 ft 259 kts 152°
2026-05-06 17:50 26.87405 -81.40998 7804 ft 255 kts 126°
2026-05-06 17:50 26.86686 -81.39247 7466 ft 246 kts 96°
2026-05-06 17:51 26.86668 -81.37350 7133 ft 242 kts 85°
2026-05-06 17:51 26.86799 -81.35473 6760 ft 241 kts 83°
2026-05-06 17:51 26.86946 -81.33616 6479 ft 237 kts 83°
2026-05-06 17:51 26.87094 -81.31808 6109 ft 237 kts 83°
2026-05-06 17:52 26.87255 -81.29981 5728 ft 236 kts 83°
2026-05-06 17:52 26.87426 -81.28197 5344 ft 236 kts 83°
2026-05-06 17:52 26.87556 -81.26941 5049 ft 237 kts 84°
2026-05-06 17:52 26.87764 -81.25115 4654 ft 237 kts 84°
2026-05-06 17:53 26.87983 -81.23296 4332 ft 235 kts 83°
2026-05-06 17:53 26.88207 -81.21489 4017 ft 233 kts 83°
2026-05-06 17:53 26.88427 -81.19750 3678 ft 231 kts 83°
2026-05-06 17:53 26.88657 -81.17966 3295 ft 232 kts 83°
2026-05-06 17:54 26.88885 -81.16171 3057 ft 232 kts 84°
2026-05-06 17:54 26.89118 -81.14392 3020 ft 231 kts 83°
2026-05-06 17:54 26.89346 -81.12641 3005 ft 226 kts 83°
2026-05-06 17:54 26.89565 -81.10932 2978 ft 218 kts 83°
2026-05-06 17:55 26.89755 -81.09258 2962 ft 215 kts 90°
2026-05-06 17:55 26.89370 -81.07676 2991 ft 214 kts 125°
2026-05-06 17:55 26.88238 -81.06631 2992 ft 215 kts 158°
2026-05-06 17:55 26.86757 -81.06501 2984 ft 218 kts 193°
2026-05-06 17:56 26.85446 -81.07350 2988 ft 223 kts 227°
2026-05-06 17:56 26.84758 -81.08897 2982 ft 228 kts 257°
2026-05-06 17:56 26.84546 -81.10654 2972 ft 229 kts 262°
2026-05-06 17:56 26.84392 -81.12431 2976 ft 229 kts 262°
2026-05-06 17:57 26.84235 -81.14206 2974 ft 230 kts 263°
2026-05-06 17:57 26.84087 -81.15992 2983 ft 231 kts 263°
2026-05-06 17:57 26.83944 -81.17788 2979 ft 230 kts 263°
2026-05-06 17:57 26.83805 -81.19542 2965 ft 222 kts 263°
2026-05-06 17:58 26.83660 -81.21241 2962 ft 217 kts 263°
2026-05-06 17:58 26.83374 -81.22884 2953 ft 215 kts 242°
2026-05-06 17:58 26.82383 -81.24056 3004 ft 209 kts 213°
2026-05-06 17:58 26.81354 -81.25206 2980 ft 212 kts 236°
2026-05-06 17:59 26.80542 -81.26572 2987 ft 208 kts 233°
2026-05-06 17:59 26.79734 -81.27892 2967 ft 203 kts 232°
2026-05-06 17:59 26.78939 -81.29183 2965 ft 201 kts 233°
2026-05-06 17:59 26.78146 -81.30471 2982 ft 201 kts 233°
2026-05-06 18:00 26.77344 -81.31758 2975 ft 201 kts 233°
2026-05-06 18:00 26.76551 -81.33050 2957 ft 201 kts 235°
2026-05-06 18:00 26.75761 -81.34335 2987 ft 201 kts 233°
2026-05-06 18:00 26.74979 -81.35638 2985 ft 203 kts 234°
2026-05-06 18:01 26.74199 -81.36961 2965 ft 204 kts 237°
2026-05-06 18:01 26.73568 -81.38360 2979 ft 199 kts 243°
2026-05-06 18:01 26.72976 -81.39756 2955 ft 198 kts 242°
2026-05-06 18:01 26.72390 -81.41128 2964 ft 198 kts 242°
2026-05-06 18:02 26.71790 -81.42517 2961 ft 198 kts 240°
2026-05-06 18:02 26.71190 -81.43895 2974 ft 197 kts 241°
2026-05-06 18:02 26.70587 -81.45270 2976 ft 197 kts 242°
2026-05-06 18:02 26.69975 -81.46655 2980 ft 203 kts 241°
2026-05-06 18:03 26.69330 -81.48111 2987 ft 212 kts 242°
2026-05-06 18:03 26.68677 -81.49582 2972 ft 211 kts 242°
2026-05-06 18:03 26.68021 -81.51059 2976 ft 214 kts 241°
2026-05-06 18:03 26.67354 -81.52558 2978 ft 217 kts 241°
2026-05-06 18:04 26.66675 -81.54077 2983 ft 219 kts 242°
2026-05-06 18:04 26.65999 -81.55585 2957 ft 211 kts 241°
2026-05-06 18:04 26.65377 -81.56977 2853 ft 199 kts 242°
2026-05-06 18:04 26.64750 -81.58345 2791 ft 198 kts 238°
2026-05-06 18:05 26.63970 -81.59611 2757 ft 196 kts 231°
2026-05-06 18:05 26.63188 -81.60814 2693 ft 187 kts 232°
2026-05-06 18:05 26.62424 -81.61952 2674 ft 185 kts 230°
2026-05-06 18:05 26.61645 -81.63147 2381 ft 192 kts 231°
2026-05-06 18:06 26.60882 -81.64350 2135 ft 190 kts 232°
2026-05-06 18:06 26.60122 -81.65534 1847 ft 185 kts 232°
2026-05-06 18:06 26.59385 -81.66644 1638 ft 171 kts 231°
2026-05-06 18:06 26.58721 -81.67672 1464 ft 153 kts 230°
2026-05-06 18:07 26.58117 -81.68591 1242 ft 146 kts 230°
2026-05-06 18:07 26.57525 -81.69504 1058 ft 142 kts 233°
2026-05-06 18:07 26.56951 -81.70388 864 ft 140 kts 230°
2026-05-06 18:07 26.56400 -81.71226 646 ft 136 kts 232°
2026-05-06 18:08 26.55837 -81.72088 452 ft 139 kts 234°
2026-05-06 18:08 26.55264 -81.72965 300 ft 142 kts 237°
2026-05-06 18:08 26.54696 -81.73852 116 ft 136 kts 237°
2026-05-06 18:08 26.54178 -81.74653 42 ft 112 kts 234°
2026-05-06 18:09 26.53808 -81.75221 42 ft 69 kts 234°
2026-05-06 18:09 26.53606 -81.75531 39 ft 32 kts 234°
2026-05-06 18:09 26.53479 -81.75708 42 ft 27 kts 217°
2026-05-06 18:09 26.53361 -81.75771 44 ft 14 kts 203°
2026-05-06 18:10 26.53280 -81.75824 44 ft 5 kts 231°
2026-05-06 18:10 26.53278 -81.75827 44 ft 0 kts 232°
2026-05-06 18:10 26.53269 -81.75842 44 ft 8 kts 234°
2026-05-06 18:10 26.53218 -81.75854 44 ft 8 kts 154°
2026-05-06 18:11 26.53168 -81.75821 43 ft 8 kts 145°
2026-05-06 18:11 26.53145 -81.75764 43 ft 9 kts 98°
2026-05-06 18:11 26.53134 -81.75691 43 ft 10 kts 101°
2026-05-06 18:11 26.53125 -81.75628 42 ft 7 kts 98°
2026-05-06 18:12 26.53117 -81.75572 42 ft 7 kts 99°
2026-05-06 18:12 26.53109 -81.75517 43 ft 7 kts 99°
2026-05-06 18:12 26.53101 -81.75466 41 ft 7 kts 99°
2026-05-06 18:12 26.53094 -81.75415 43 ft 7 kts 98°
2026-05-06 18:13 26.53077 -81.75369 42 ft 7 kts 134°
2026-05-06 18:13 26.53001 -81.75362 43 ft 14 kts 189°
2026-05-06 18:13 26.52916 -81.75378 43 ft 10 kts 189°
2026-05-06 18:13 26.52864 -81.75358 43 ft 6 kts 144°
2026-05-06 18:14 26.52843 -81.75342 43 ft 3 kts 144°
2026-05-06 18:14 26.52838 -81.75338 43 ft 0 kts 144°